Aberdeen / Amory, MS

9:09 AM CDT on March 30, 2017 (GMT -0500)
Aberdeen / Amory

Weather History for KM40 - May, 2013

Change the Weather History Date:

Saturday, May 25, 2013

  Actual Average (KCBM) Record (KCBM)
Temperature  
Mean Temperature 66 °F -  
Max Temperature 84 °F 81 °F 91 °F (2006)
Min Temperature 48 °F 62 °F 50 °F (2013)
Cooling Degree Days 1    
Growing Degree Days 16 (Base 50)    
Moisture  
Dew Point 50 °F    
Average Humidity 55    
Maximum Humidity 59    
Minimum Humidity 52    
Precipitation  
Precipitation 0.00 in - - ()
Sea Level Pressure  
Sea Level Pressure 30.25 in    
Wind  
Wind Speed 0 mph (NNW)    
Max Wind Speed 7 mph    
Max Gust Speed -    
Visibility 8 miles    
Events      
Averages and records for this station are not official NWS values.
T = Trace of Precipitation, MM = Missing Value Source: NWS Daily Summary

Daily Weather History Graph

Daily Weather History Graph

Search for Another Location

Airport or City:

Trip Planner

Search our weather history database for the weather conditions in past years. The results will help you decide how hot, cold, wet, or windy it might be!

Date:

Astronomy

May. 25, 2013 Rise Set
Actual Time 5:46 AM CDT 7:55 PM CDT
Civil Twilight 5:18 AM CDT 8:23 PM CDT
Nautical Twilight 4:43 AM CDT 8:58 PM CDT
Astronomical Twilight 4:06 AM CDT 9:35 PM CDT
Moon 8:43 PM CDT (5/25) 6:12 AM CDT (5/25)
Length of Visible Light 15h 05m
Length of Day
14h 08m
Full, 100% of the Moon is Illuminated
May 25
Full
May 31
Last Quarter
Jun 8
New
Jun 16
First Quarter
Jun 23
Full

Hourly Weather History & Observations

Time (CDT) Temp. Heat Index Dew Point Humidity Pressure Visibility Wind Dir Wind Speed Gust Speed Precip Events Conditions
12:15 AM 53.6 °F - 37.4 °F 54% 30.25 in 10.0 mi Calm Calm - N/A   Clear
12:35 AM 53.6 °F - 37.4 °F 54% 30.25 in 9.0 mi Calm Calm - N/A   Clear
12:55 AM 53.6 °F - 37.4 °F 54% 30.25 in 9.0 mi North - - N/A   Clear
1:15 AM 53.6 °F - 37.4 °F 54% 30.24 in 10.0 mi North - - N/A   Clear
1:35 AM 53.6 °F - 37.4 °F 54% 30.24 in 9.0 mi North - - N/A   Clear
1:55 AM 53.6 °F - 37.4 °F 54% 30.24 in 10.0 mi North - - N/A   Clear
2:15 AM 51.8 °F - 35.6 °F 54% 30.24 in 10.0 mi North - - N/A   Clear
2:35 AM 51.8 °F - 35.6 °F 54% 30.24 in 9.0 mi Calm Calm - N/A   Clear
2:55 AM 51.8 °F - 35.6 °F 54% 30.25 in 9.0 mi North - - N/A   Clear
3:15 AM 51.8 °F - 35.6 °F 54% 30.25 in 10.0 mi Calm Calm - N/A   Clear
3:35 AM 51.8 °F - 35.6 °F 54% 30.26 in 9.0 mi Calm Calm - N/A   Clear
3:55 AM 51.8 °F - 35.6 °F 54% 30.27 in 10.0 mi Calm Calm - N/A   Clear
4:15 AM 50.0 °F - 33.8 °F 54% 30.27 in 9.0 mi Calm Calm - N/A   Clear
4:35 AM 48.2 °F - 33.8 °F 58% 30.28 in 8.0 mi Calm Calm - N/A   Clear
4:55 AM 48.2 °F - 33.8 °F 58% 30.28 in 6.0 mi Calm Calm - N/A   Haze
5:15 AM 48.2 °F - 33.8 °F 58% 30.28 in 5.0 mi Calm Calm - N/A   Haze
5:35 AM 48.2 °F - 33.8 °F 58% 30.29 in 5.0 mi Calm Calm - N/A   Haze
5:55 AM 48.2 °F - 32.0 °F 54% 30.29 in 2.5 mi Calm Calm - N/A   Haze
6:15 AM 48.2 °F - 33.8 °F 58% 30.30 in 1.8 mi Calm Calm - N/A   Haze
6:35 AM 50.0 °F - 33.8 °F 54% 30.30 in 4.0 mi Calm Calm - N/A   Haze
6:55 AM 53.6 °F - 37.4 °F 54% 30.31 in 5.0 mi Calm Calm - N/A   Haze
7:15 AM 55.4 °F - 39.2 °F 54% 30.31 in 7.0 mi Calm Calm - N/A   Clear
7:35 AM 57.2 °F - 42.8 °F 59% 30.32 in 8.0 mi Calm Calm - N/A   Clear
7:55 AM 60.8 °F - 44.6 °F 55% 30.32 in 8.0 mi Calm Calm - N/A   Clear
8:15 AM 62.6 °F - 46.4 °F 55% 30.32 in 8.0 mi Calm Calm - N/A   Clear
8:35 AM 66.2 °F - 48.2 °F 52% 30.32 in 9.0 mi NNW 5.8 mph - N/A   Clear
8:55 AM 66.2 °F - 50.0 °F 56% 30.32 in 9.0 mi NNW 6.9 mph - N/A   Clear
9:15 AM 69.8 °F - 53.6 °F 56% 30.32 in 9.0 mi North - - N/A   Clear
9:35 AM 71.6 °F - 55.4 °F 57% 30.31 in 9.0 mi North - - N/A   Clear
9:55 AM 73.4 °F - 57.2 °F 57% 30.31 in 9.0 mi North - - N/A   Clear
10:15 AM 75.2 °F - 57.2 °F 53% 30.31 in 8.0 mi NNW 5.8 mph - N/A   Clear
10:35 AM 75.2 °F - 59.0 °F 57% 30.31 in 9.0 mi North - - N/A   Clear
10:55 AM 77.0 °F - 60.8 °F 57% 30.30 in 9.0 mi North - - N/A   Clear
11:15 AM 78.8 °F - 60.8 °F 54% 30.30 in 10.0 mi North - - N/A   Clear
11:35 AM 78.8 °F - 62.6 °F 57% 30.30 in 10.0 mi North - - N/A   Clear
11:55 AM 80.6 °F 81.8 °F 62.6 °F 54% 30.30 in 10.0 mi NNW 3.5 mph - N/A   Partly Cloudy
12:15 PM 80.6 °F 81.8 °F 62.6 °F 54% 30.29 in 9.0 mi North - - N/A   Partly Cloudy
12:35 PM 80.6 °F 82.3 °F 64.4 °F 58% 30.28 in 9.0 mi NNW 3.5 mph - N/A   Clear
12:55 PM 82.4 °F 83.9 °F 64.4 °F 54% 30.27 in 9.0 mi North - - N/A   Partly Cloudy
1:15 PM 82.4 °F 83.9 °F 64.4 °F 54% 30.27 in 9.0 mi NNW 3.5 mph - N/A   Partly Cloudy
1:35 PM 82.4 °F 83.9 °F 64.4 °F 54% 30.27 in 9.0 mi North - - N/A   Clear
1:55 PM 84.2 °F 86.6 °F 66.2 °F 55% 30.26 in 10.0 mi North - - N/A   Clear
2:15 PM 84.2 °F 86.6 °F 66.2 °F 55% 30.26 in 10.0 mi North - - N/A   Clear
2:35 PM 84.2 °F 86.6 °F 66.2 °F 55% 30.25 in 10.0 mi North - - N/A   Clear
2:55 PM 84.2 °F 86.6 °F 66.2 °F 55% 30.24 in 10.0 mi North - - N/A   Clear
3:15 PM 84.2 °F 86.6 °F 66.2 °F 55% 30.23 in 9.0 mi North - - N/A   Clear
3:35 PM 82.4 °F 83.9 °F 64.4 °F 54% 30.23 in 9.0 mi North - - N/A   Partly Cloudy
3:55 PM 82.4 °F 83.9 °F 64.4 °F 54% 30.22 in 10.0 mi North - - N/A   Partly Cloudy
4:15 PM 82.4 °F 83.9 °F 64.4 °F 54% 30.22 in 9.0 mi Calm Calm - N/A   Clear
4:35 PM 82.4 °F 84.6 °F 66.2 °F 58% 30.22 in 10.0 mi North - - N/A   Clear
4:55 PM 82.4 °F 83.9 °F 64.4 °F 54% 30.22 in 9.0 mi North - - N/A   Clear
5:15 PM 82.4 °F 83.9 °F 64.4 °F 54% 30.21 in 10.0 mi North - - N/A   Clear
5:35 PM 80.6 °F 81.8 °F 62.6 °F 54% 30.21 in 9.0 mi North - - N/A   Clear
5:55 PM 80.6 °F 81.8 °F 62.6 °F 54% 30.21 in 9.0 mi North - - N/A   Clear
6:15 PM 80.6 °F 81.8 °F 62.6 °F 54% 30.21 in 10.0 mi Calm Calm - N/A   Clear
6:35 PM 78.8 °F - 62.6 °F 57% 30.20 in 10.0 mi Calm Calm - N/A   Clear
6:55 PM 77.0 °F - 60.8 °F 57% 30.20 in 9.0 mi Calm Calm - N/A   Clear
7:15 PM 71.6 °F - 55.4 °F 57% 30.19 in 9.0 mi Calm Calm - N/A   Clear
7:35 PM 68.0 °F - 51.8 °F 56% 30.19 in 10.0 mi Calm Calm - N/A   Clear
7:55 PM 64.4 °F - 48.2 °F 56% 30.19 in 9.0 mi Calm Calm - N/A   Clear
8:15 PM 64.4 °F - 46.4 °F 52% 30.19 in 10.0 mi Calm Calm - N/A   Clear
8:35 PM 62.6 °F - 46.4 °F 55% 30.19 in 10.0 mi Calm Calm - N/A   Clear
8:55 PM 60.8 °F - 44.6 °F 55% 30.18 in 10.0 mi Calm Calm - N/A   Clear
9:15 PM 62.6 °F - 44.6 °F 52% 30.19 in 9.0 mi Calm Calm - N/A   Clear
9:35 PM 60.8 °F - 44.6 °F 55% 30.19 in 3.0 mi Calm Calm - N/A   Haze
9:55 PM 60.8 °F - 44.6 °F 55% 30.20 in 9.0 mi Calm Calm - N/A   Clear
10:15 PM 60.8 °F - 44.6 °F 55% 30.20 in 7.0 mi Calm Calm - N/A   Clear
10:35 PM 60.8 °F - 44.6 °F 55% 30.20 in 8.0 mi Calm Calm - N/A   Clear
10:55 PM 60.8 °F - 44.6 °F 55% 30.20 in 8.0 mi Calm Calm - N/A   Clear
11:15 PM 60.8 °F - 42.8 °F 52% 30.20 in 5.0 mi Calm Calm - N/A   Haze
11:35 PM 59.0 °F - 42.8 °F 55% 30.19 in 5.0 mi Calm Calm - N/A   Haze
11:55 PM 59.0 °F - 42.8 °F 55% 30.19 in 6.0 mi Calm Calm - N/A   Haze